COSMOS 2491 DEB, 47110

Orbit data source: Space-Track

COSMOS 2491 DEB, 47110 is space debris in LEO originally from a launch on Wed, 25 Dec 2013 UTC launched from the Plesetsk Missile And Space Complex (PKMTR). Debris objects in space refer to the collection of defunct objects orbiting the Earth. Examples of debris include non-operational satellites, rocket bodies, and fragments generated from explosions, collisions, or faulty payload assembly.

Loading next visibility...
Identifier
47110, 2013-076AF
Orbit
LEO
Country
Flag of CISCIS
Related business
Manufacturer
TsNIIKhM
Mission
Spacecraft
Bus & Motor
Unknown
Mass
Unknown
Launch date (UTC)
2013-12-25 (12 years ago)
Launch vehicle
Unknown
Launch site
Plesetsk Missile And Space Complex (PKMTR)
Object type
Payload
Rocket body
Debris
Shape & HBR
Unknown
Radar Cross Section
Small (<0.1 m²)

Expand to show TLE details & history
Last TLE update: 5 days ago

TLE from 5 days ago
0 COSMOS 2491 DEB
1 47110U 13076AF  25255.47410776 -.00000373  00000-0 -22261-2 0  9995
2 47110  82.4419 313.4874 0124730 114.4425 246.9734 12.57515529256674
Epoch: 2025-09-12T11:22Z
TLE epoch observation values (Epoch: 2025-09-12T11:22:42.91Z)
Latitude
-0.00003°
Longitude
151.0873°
Altitude
1,475.076 km
Speed
7.108 km/s
True Right ascension
20h 53m 56s
True Declination
0° 00' 00"
Sunlit
Object was in full shadow at epoch
Visualization orbit readout
Latitude
Unknown
Longitude
Unknown
Altitude
Unknown
Speed
Unknown
Apparent Right ascension
Unknown
Apparent Declination
Unknown
Sunlit
N/A
Visualization observer readout
Local Sidereal Time
01:19:24
Azimuth
Unknown
Elevation
Unknown
Doppler factor
Unknown
Orbital elements
Apogee altitude
1,527.946 km
Perigee altitude
1,333.15 km
Semi-major axis
7,808.685 km
Eccentricity
0.01247
Inclination
82.4419°
RAAN
313.4874°
Arg. of periapsis
114.4425°
True anomaly
245.66607°
Mean anomaly
246.9734°
Eccentric anomaly
246.31893°
Mean motion
3.1454 °/min
Orbital period
114.45 mins
BSTAR
-0.0022261
Loading maneuver chart data...
Computing Atmospheric mass density...
Loading historical data...
Loading historical data...
Loading historical data...
Loading historical data...
Loading historical data...
Loading historical data...
Loading historical data...

Documentation

Showing up to 5 results
|